TimeEET,TemperatureF,Dew PointF,Humidity,Sea Level PressureIn,VisibilityMPH,Wind Direction,Wind SpeedMPH,Gust SpeedMPH,PrecipitationIn,Events,Conditions,WindDirDegrees,DateUTC
12:20 AM,42.8,33.8,70,30.12,6.2,Calm,Calm,-,N/A,,Mostly Cloudy,0,2014-03-11 22:20:00
12:50 AM,42.8,33.8,70,30.12,6.2,West,5.8,-,N/A,,Mostly Cloudy,280,2014-03-11 22:50:00
1:20 AM,42.8,32.0,66,30.12,6.2,NW,4.6,-,N/A,,Mostly Cloudy,320,2014-03-11 23:20:00
1:50 AM,41.0,32.0,70,30.12,6.2,NNW,6.9,-,N/A,,Mostly Cloudy,340,2014-03-11 23:50:00
2:00 AM,42,32,59,30.13,6,Calm,Calm,,,,Partly Cloudy,,2014-03-12 00:00:00
2:20 AM,41.0,33.8,76,30.09,6.2,NW,6.9,-,N/A,,Mostly Cloudy,320,2014-03-12 00:20:00
2:50 AM,41.0,33.8,76,30.09,6.2,NNW,6.9,-,N/A,,Mostly Cloudy,340,2014-03-12 00:50:00
3:20 AM,39.2,33.8,81,30.09,6.2,North,4.6,-,N/A,,Mostly Cloudy,350,2014-03-12 01:20:00
3:50 AM,39.2,32.0,75,30.09,6.2,Calm,Calm,-,N/A,,Mostly Cloudy,0,2014-03-12 01:50:00
4:20 AM,39.2,33.8,81,30.09,6.2,Calm,Calm,-,N/A,,Mostly Cloudy,0,2014-03-12 02:20:00
4:50 AM,41.0,33.8,76,30.09,6.2,NNW,5.8,-,N/A,,Mostly Cloudy,330,2014-03-12 02:50:00
5:00 AM,41,33,65,30.11,6,NNW,5.8,,,,Scattered Clouds,330,2014-03-12 03:00:00
5:20 AM,41.0,33.8,76,30.09,6.2,NNW,4.6,-,N/A,,Mostly Cloudy,340,2014-03-12 03:20:00
5:50 AM,41.0,32.0,70,30.09,6.2,Calm,Calm,-,N/A,,Mostly Cloudy,0,2014-03-12 03:50:00
6:20 AM,41.0,32.0,70,30.09,6.2,Calm,Calm,-,N/A,,Mostly Cloudy,0,2014-03-12 04:20:00
6:50 AM,41.0,32.0,70,30.09,6.2,Variable,2.3,-,N/A,,Mostly Cloudy,0,2014-03-12 04:50:00
7:20 AM,42.8,33.8,70,30.12,6.2,NW,9.2,-,N/A,,Scattered Clouds,320,2014-03-12 05:20:00
7:50 AM,44.6,35.6,71,30.12,-9999.0,NW,9.2,-,N/A,,Clear,320,2014-03-12 05:50:00
8:00 AM,44,34,58,30.14,12,NW,9.2,,,,Partly Cloudy,320,2014-03-12 06:00:00
8:20 AM,44.6,37.4,76,30.12,-9999.0,NW,11.5,-,N/A,,Clear,320,2014-03-12 06:20:00
8:50 AM,46.4,37.4,71,30.12,-9999.0,NW,11.5,-,N/A,,Clear,320,2014-03-12 06:50:00
9:20 AM,48.2,39.2,71,30.12,-9999.0,NNW,17.3,-,N/A,,Clear,340,2014-03-12 07:20:00
9:50 AM,50.0,39.2,66,30.15,6.2,NNW,20.7,-,N/A,,Scattered Clouds,340,2014-03-12 07:50:00
10:20 AM,50.0,37.4,62,30.15,6.2,North,18.4,-,N/A,,Scattered Clouds,350,2014-03-12 08:20:00
10:50 AM,50.0,39.2,66,30.15,6.2,North,20.7,-,N/A,,Partly Cloudy,350,2014-03-12 08:50:00
11:00 AM,50,38,54,30.17,6,North,20.7,,,,Scattered Clouds,350,2014-03-12 09:00:00
11:20 AM,50.0,39.2,66,30.15,6.2,NNW,20.7,-,N/A,,Partly Cloudy,340,2014-03-12 09:20:00
11:50 AM,51.8,41.0,67,30.15,6.2,North,21.9,-,N/A,,Partly Cloudy,360,2014-03-12 09:50:00
12:20 PM,51.8,39.2,62,30.15,6.2,North,25.3,-,N/A,,Partly Cloudy,360,2014-03-12 10:20:00
12:50 PM,50.0,39.2,66,30.12,6.2,North,26.5,-,N/A,,Partly Cloudy,360,2014-03-12 10:50:00
1:20 PM,50.0,39.2,66,30.12,6.2,North,26.5,38.0,N/A,,Partly Cloudy,350,2014-03-12 11:20:00
1:50 PM,51.8,39.2,62,30.12,6.2,North,27.6,-,N/A,,Partly Cloudy,350,2014-03-12 11:50:00
2:00 PM,51,38,49,30.14,6,North,27.6,,,,Scattered Clouds,350,2014-03-12 12:00:00
2:20 PM,51.8,39.2,62,30.12,6.2,North,27.6,-,N/A,,Partly Cloudy,360,2014-03-12 12:20:00
2:50 PM,51.8,37.4,58,30.15,-9999.0,North,23.0,-,N/A,,Clear,360,2014-03-12 12:50:00
3:20 PM,50.0,37.4,62,30.15,6.2,North,20.7,32.2,N/A,,Partly Cloudy,360,2014-03-12 13:20:00
3:50 PM,48.2,37.4,66,30.15,6.2,North,19.6,-,N/A,,Scattered Clouds,360,2014-03-12 13:50:00
4:20 PM,50.0,39.2,66,30.15,6.2,North,16.1,-,N/A,,Scattered Clouds,10,2014-03-12 14:20:00
4:50 PM,48.2,37.4,66,30.18,6.2,North,19.6,-,N/A,,Scattered Clouds,360,2014-03-12 14:50:00
5:00 PM,48,38,60,30.19,6,North,19.6,,,,Partly Cloudy,0,2014-03-12 15:00:00
5:20 PM,48.2,37.4,66,30.18,6.2,North,13.8,-,N/A,,Scattered Clouds,10,2014-03-12 15:20:00
5:50 PM,48.2,37.4,66,30.21,6.2,North,15.0,-,N/A,,Scattered Clouds,10,2014-03-12 15:50:00
6:20 PM,48.2,37.4,66,30.21,6.2,North,11.5,-,N/A,,Mostly Cloudy,360,2014-03-12 16:20:00
6:50 PM,46.4,37.4,71,30.21,-9999.0,North,11.5,-,N/A,,Clear,360,2014-03-12 16:50:00
7:20 PM,46.4,37.4,71,30.21,-9999.0,North,10.4,-,N/A,,Clear,360,2014-03-12 17:20:00
7:50 PM,46.4,39.2,76,30.21,-9999.0,North,13.8,-,N/A,,Clear,10,2014-03-12 17:50:00
8:00 PM,47,39,65,30.24,6,North,13.8,,,,,10,2014-03-12 18:00:00
8:20 PM,46.4,37.4,71,30.21,-9999.0,North,12.7,-,N/A,,Clear,10,2014-03-12 18:20:00
8:50 PM,46.4,37.4,71,30.24,-9999.0,North,15.0,-,N/A,,Clear,10,2014-03-12 18:50:00
9:20 PM,48.2,39.2,71,30.24,-9999.0,NNE,12.7,-,N/A,,Clear,20,2014-03-12 19:20:00
9:50 PM,46.4,37.4,71,30.24,-9999.0,North,10.4,-,N/A,,Clear,10,2014-03-12 19:50:00
10:20 PM,41.0,37.4,87,30.24,-9999.0,NNW,11.5,-,N/A,,Clear,340,2014-03-12 20:20:00
10:50 PM,41.0,37.4,87,30.24,-9999.0,North,9.2,-,N/A,,Clear,350,2014-03-12 20:50:00
11:00 PM,40,37,84,30.27,6,North,9.2,,,,,350,2014-03-12 21:00:00
11:20 PM,39.2,35.6,87,30.24,-9999.0,NNW,6.9,-,N/A,,Clear,340,2014-03-12 21:20:00
11:50 PM,41.0,37.4,87,30.24,-9999.0,NNW,6.9,-,N/A,,Clear,330,2014-03-12 21:50:00